Regional Weather Roundup
Issued by NWS

Home | Current Version | Previous Version | Text Only | Print | Product List | Glossary On
Versions: 1 2 3 4 5 6 7 8 9 10 11 12 13 14 15 16 17 18 19 20 21 22 23 24 25 26 27 28 29 30 31 32 33 34 35 36 37 38 39 40 41 42 43 44 45 46 47 48 49 50
000
ASUS43 KLSX 040959
RWRMO

WEATHER SUMMARY FOR MISSOURI
NATIONAL WEATHER SERVICE SPRINGFIELD MO
500 AM CDT MON MAY 04 2015

NOTE: "FAIR" INDICATES FEW OR NO CLOUDS BELOW 12,000 FEET WITH NO
       SIGNIFICANT WEATHER AND/OR OBSTRUCTIONS TO VISIBILITY.
       CURRENT SKY AND/OR WEATHER CONDITIONS ARE NOT AVAILABLE FOR
       CHILLICOTHE AND FARMINGTON.

MOZ001>031-035>038-043-044-053-054-041100-
...NORTHERN AND WESTERN MISSOURI...

CITY           SKY/WX    TMP DP  RH WIND       PRES   REMARKS
KANSAS CTY INT CLOUDY    65  55  70 CALM      29.98R
KANSAS C DTWN  CLOUDY    68  55  63 N7        29.97R
LEE`S SUMMIT   MOCLDY    65  55  70 S7        29.97R
ST JOSEPH      CLOUDY    66  59  78 S10       29.93F
CHILLICOTHE      N/A     64  59  83 W8        29.97R
KIRKSVILLE     CLOUDY    68  58  70 SW7       29.98R

$$
MOZ066>068-077>081-088>096-101>105-041100-
...SOUTHWEST MISSOURI...

CITY           SKY/WX    TMP DP  RH WIND       PRES   REMARKS
SPRINGFIELD    MOCLDY    62  55  77 S3        30.03R
JOPLIN         MOCLDY    66  55  67 S10       30.02R

$$
MOZ032>034-039>042-045>050-055>058-069>072-041100-
...CENTRAL MISSOURI...

CITY           SKY/WX    TMP DP  RH WIND       PRES   REMARKS
COLUMBIA       CLOUDY    63  56  78 S9        30.02R
JEFFERSON CITY CLOUDY    67  55  65 S3        30.02R
ROLLA          CLOUDY    64  56  75 SW10      30.03R
SEDALIA        MOCLDY    64  56  75 S9        30.00S
OSAGE BEACH    CLOUDY    64  54  68 S5        30.04R

$$
MOZ051-052-059>065-041100-
...EAST CENTRAL MISSOURI...

CITY           SKY/WX    TMP DP  RH WIND       PRES   REMARKS
ST LOUIS INTL  LGT RAIN  71  54  54 SW10      30.02R
SPIRIT OF STL  CLOUDY    66  57  72 CALM      30.01R
ST CHARLES     CLOUDY    67  55  65 SW5       30.01R

$$
MOZ072>076-082>087-097>100-106>115-041100-
...SOUTH CENTRAL AND SOUTHEAST MISSOURI...

CITY           SKY/WX    TMP DP  RH WIND       PRES   REMARKS
CAPE GIRARDEAU PTCLDY    65  50  58 CALM      30.08R
FARMINGTON     MOCLDY    63  54  72 S6        30.09S
POPLAR BLUFF   PTCLDY    59  54  83 CALM      30.07R
WEST PLAINS    MOCLDY    64  54  69 S5        30.08R

$$


USA.gov is the U.S. government's official web portal to all federal, state and local government web resources and services.